NNSS O-20 [?]

Last updated on Wed Jun 28 2023 00:03:29 GMT+0000 (Coordinated Universal Time)

1 06909U 73081A 23178.32294341 .00000231 00000+0 22993-3 0 9995 2 06909 89.8271 270.3924 0153966 253.8173 104.5998 13.70834983680643
UTC large
Height (km)
Speed (km/s)
/
Latitude / Longitude
Inclination (degrees)
Orbital Period (minutes)
Azimuth
Elevation
Range (km)
Doppler Factor

Next 0 passes for location: London (51.5072 / 0.1276)

Sorry there are no passes over London.